Location: Observatoire
(46.1952°N, 5.3391°E)
Time: 22:02:37
(UTC+01:00)

A-11 Canister half - Pass Details

Date: 17 February 2026
Orbit: 1525 x 1683 km, 47.3° (Epoch: 9 March)

Event Time Altitude Azimuth Distance (km) Brightness Sun altitude
Rises 18:24:10 0° 248° (WSW) 4,708 14.0 -3.6°
Reaches altitude 10° 18:27:13 10° 248° (WSW) 3,712 12.9 -4.2°
Maximum altitude 18:36:35 84° 162° (SSE) 1,537 9.1 -5.7°
Drops below altitude 10° 18:45:54 10° 76° (ENE) 3,701 10.3 -7.3°
Enters shadow 18:46:23 - 76° (ENE) 3,859 10.4 -7.4°
Sets 18:48:57 0° 76° (ENE) 4,693 - -7.9°
